Location: Asheville, NC
(35.6000°N, 82.5500°W)
Time: 14:00:16
(UTC-04:00)

ITAMSAT 1 - Pass Details

Date: 12 March 2018
Orbit: 784 x 796 km, 98.9° (Epoch: 18 June)

Event Time Altitude Azimuth Distance (km) Brightness Sun altitude
Rises 05:02:43 0° 20° (NNE) 3,301 11.4 -33.2°
Reaches altitude 10° 05:05:09 10° 26° (NNE) 2,367 10.6 -32.7°
Maximum altitude 05:10:10 46° 100° (E) 1,053 8.5 -31.8°
Enters shadow 05:10:24 46° 108° (ESE) 1,057 8.5 -31.8°
